Location: Caltech
(34.1382°N, 118.1253°W)
Time: 13:25:52
(UTC-08:00)

CZ-4B DEB - Visible Passes

Search period start: 13 February 2016 00:00
Search period end: 23 February 2016 00:00
Orbit: 842 x 863 km, 98.9° (Epoch: 13 February)

Date Brightness Start Highest point End Pass type
(mag) Time Alt. Az. Time Alt. Az. Time Alt. Az.
17 Feb 6.6 04:12:25 10° N 04:12:39 11° N 04:12:39 11° N visible
18 Feb 6.6 04:00:56 10° N 04:01:21 12° N 04:01:21 12° N visible
19 Feb 6.6 03:49:30 10° N 03:50:02 13° N 03:50:02 13° N visible
20 Feb 6.6 03:38:07 10° N 03:38:43 13° N 03:38:43 13° N visible
21 Feb 6.7 03:26:48 10° NNE 03:27:24 13° NNE 03:27:24 13° NNE visible
22 Feb 6.8 03:15:32 10° NNE 03:16:05 13° NNE 03:16:05 13° NNE visible
22 Feb 6.4 04:58:02 10° NNW 04:58:08 10° NNW 04:58:08 10° NNW visible
